Weather History for Mount Airy, NC

Change the Weather History Date:

Tuesday, October 4, 2011

  Actual Average (KINT) Record (KINT)
Temperature  
Mean Temperature 60 °F -  
Max Temperature 71 °F 71 °F 90 °F (1986)
Min Temperature 50 °F 52 °F 28 °F (1974)
Degree Days  
Heating Degree Days 4    
Growing Degree Days 10 (Base 50)    
Moisture  
Dew Point 47 °F    
Average Humidity 65    
Maximum Humidity 87    
Minimum Humidity 43    
Precipitation  
Precipitation 0.00 in - - ()
Sea Level Pressure  
Sea Level Pressure 30.20 in    
Wind  
Wind Speed 2 mph (North)    
Max Wind Speed 10 mph    
Max Gust Speed -    
Visibility 10 miles    
Events      
Averages and records for this station are not official NWS values.
T = Trace of Precipitation, MM = Missing Value Source: NWS Daily Summary

Daily Weather History Graph

Daily Weather History Graph

Search for Another Location

Airport:

Trip Planner

Search our weather history database for the weather conditions in past years. The results will help you decide how hot, cold, wet, or windy it might be!

Date:

Astronomy

Oct. 04, 2011 Rise Set
Actual Time 7:19 AM EDT 7:01 PM EDT
Civil Twilight 6:53 AM EDT 7:27 PM EDT
Nautical Twilight 6:24 AM EDT 7:57 PM EDT
Astronomical Twilight 5:54 AM EDT 8:27 PM EDT
Moon 2:52 PM EDT (10/4) 12:13 AM EDT (10/4)
Length of Visible Light 12h 33m
Length of Day
11h 42m
First Quarter, 56% of the Moon is Illuminated
Oct 4
First Quarter
Oct 11
Full
Oct 19
Last Quarter
Oct 26
New
Nov 2
First Quarter

Hourly Weather History & Observations

Time (EDT) Temp. Dew Point Humidity Pressure Visibility Wind Dir Wind Speed Gust Speed Precip Events Conditions
12:35 AM 51.8 °F 42.8 °F 71% 30.17 in 10.0 mi Calm Calm - N/A   Clear
12:55 AM 51.8 °F 42.8 °F 71% 30.17 in 10.0 mi Calm Calm - N/A   Mostly Cloudy
1:15 AM 51.8 °F 42.8 °F 71% 30.17 in 10.0 mi North 3.5 mph - N/A   Overcast
1:35 AM 53.6 °F 42.8 °F 67% 30.17 in 10.0 mi North 3.5 mph - N/A   Overcast
1:55 AM 51.8 °F 44.6 °F 76% 30.18 in 10.0 mi Calm Calm - N/A   Overcast
2:15 AM 50.0 °F 44.6 °F 82% 30.17 in 10.0 mi Calm Calm - N/A   Overcast
2:35 AM 50.0 °F 44.6 °F 82% 30.17 in 10.0 mi Calm Calm - N/A   Overcast
2:55 AM 50.0 °F 44.6 °F 82% 30.16 in 10.0 mi Calm Calm - N/A   Overcast
3:15 AM 50.0 °F 44.6 °F 82% 30.16 in 10.0 mi Calm Calm - N/A   Overcast
3:35 AM 50.0 °F 44.6 °F 82% 30.16 in 10.0 mi Calm Calm - N/A   Overcast
3:55 AM 50.0 °F 44.6 °F 82% 30.16 in 10.0 mi Calm Calm - N/A   Overcast
4:15 AM 50.0 °F 44.6 °F 82% 30.16 in 10.0 mi Calm Calm - N/A   Overcast
4:35 AM 51.8 °F 44.6 °F 76% 30.16 in 10.0 mi Calm Calm - N/A   Overcast
4:55 AM 51.8 °F 46.4 °F 82% 30.17 in 10.0 mi Calm Calm - N/A   Overcast
5:15 AM 50.0 °F 44.6 °F 82% 30.18 in 10.0 mi Calm Calm - N/A   Overcast
5:35 AM 50.0 °F 46.4 °F 87% 30.18 in 10.0 mi Calm Calm - N/A   Overcast
5:55 AM 51.8 °F 46.4 °F 82% 30.19 in 10.0 mi Calm Calm - N/A   Overcast
6:15 AM 51.8 °F 46.4 °F 82% 30.19 in 10.0 mi Calm Calm - N/A   Overcast
6:55 AM 51.8 °F 46.4 °F 82% 30.20 in 10.0 mi Calm Calm - N/A   Scattered Clouds
7:15 AM 50.0 °F 44.6 °F 82% 30.20 in 10.0 mi Calm Calm - N/A   Scattered Clouds
7:35 AM 50.0 °F 44.6 °F 82% 30.20 in 10.0 mi Calm Calm - N/A   Scattered Clouds
7:55 AM 50.0 °F 44.6 °F 82% 30.21 in 10.0 mi South 3.5 mph - N/A   Scattered Clouds
8:15 AM 50.0 °F 46.4 °F 87% 30.22 in 10.0 mi Calm Calm - N/A   Overcast
8:35 AM 51.8 °F 46.4 °F 82% 30.22 in 10.0 mi Calm Calm - N/A   Overcast
8:55 AM 53.6 °F 46.4 °F 77% 30.23 in 10.0 mi Calm Calm - N/A   Mostly Cloudy
9:15 AM 55.4 °F 48.2 °F 77% 30.24 in 10.0 mi Calm Calm - N/A   Scattered Clouds
9:35 AM 55.4 °F 48.2 °F 77% 30.24 in 10.0 mi Calm Calm - N/A   Mostly Cloudy
9:55 AM 57.2 °F 48.2 °F 72% 30.25 in 10.0 mi Calm Calm - N/A   Overcast
10:15 AM 60.8 °F 48.2 °F 63% 30.25 in 10.0 mi Calm Calm - N/A   Overcast
10:35 AM 62.6 °F 48.2 °F 59% 30.26 in 10.0 mi Calm Calm - N/A   Scattered Clouds
10:55 AM 62.6 °F 48.2 °F 59% 30.26 in 10.0 mi North 3.5 mph - N/A   Clear
11:15 AM 64.4 °F 50.0 °F 59% 30.26 in 10.0 mi Calm Calm - N/A   Clear
11:35 AM 64.4 °F 50.0 °F 59% 30.26 in 10.0 mi WNW 3.5 mph - N/A   Scattered Clouds
12:15 PM 66.2 °F 50.0 °F 56% 30.25 in 10.0 mi North 6.9 mph - N/A   Clear
12:35 PM 68.0 °F 48.2 °F 49% 30.24 in 10.0 mi NW 3.5 mph - N/A   Clear
12:55 PM 68.0 °F 50.0 °F 52% 30.24 in 10.0 mi North 8.1 mph - N/A   Clear
1:15 PM 68.0 °F 48.2 °F 49% 30.24 in 10.0 mi NNE 10.4 mph - N/A   Clear
1:35 PM 68.0 °F 48.2 °F 49% 30.22 in 10.0 mi North 3.5 mph - N/A   Clear
1:55 PM 69.8 °F 48.2 °F 46% 30.22 in 10.0 mi North 5.8 mph - N/A   Scattered Clouds
2:15 PM 68.0 °F 48.2 °F 49% 30.21 in 10.0 mi NNW 5.8 mph - N/A   Scattered Clouds
2:35 PM 69.8 °F 50.0 °F 49% 30.21 in 10.0 mi West 3.5 mph - N/A   Scattered Clouds
2:55 PM 69.8 °F 50.0 °F 49% 30.20 in 10.0 mi North 4.6 mph - N/A   Clear
3:15 PM 69.8 °F 48.2 °F 46% 30.19 in 10.0 mi NNE 6.9 mph - N/A   Clear
3:35 PM 71.6 °F 50.0 °F 46% 30.19 in 10.0 mi NNE 5.8 mph - N/A   Scattered Clouds
3:55 PM 71.6 °F 50.0 °F 46% 30.19 in 10.0 mi North 8.1 mph - N/A   Scattered Clouds
4:15 PM 71.6 °F 50.0 °F 46% 30.19 in 10.0 mi North 5.8 mph - N/A   Clear
4:35 PM 71.6 °F 50.0 °F 46% 30.18 in 10.0 mi Calm Calm - N/A   Scattered Clouds
4:55 PM 71.6 °F 48.2 °F 43% 30.19 in 10.0 mi NNE 6.9 mph - N/A   Scattered Clouds
5:15 PM 69.8 °F 48.2 °F 46% 30.19 in 10.0 mi North 4.6 mph - N/A   Clear
5:35 PM 69.8 °F 48.2 °F 46% 30.19 in 10.0 mi North 4.6 mph - N/A   Clear
5:55 PM 69.8 °F 50.0 °F 49% 30.20 in 10.0 mi North 3.5 mph - N/A   Clear
6:15 PM 68.0 °F 50.0 °F 52% 30.20 in 10.0 mi North 4.6 mph - N/A   Clear
6:35 PM 68.0 °F 50.0 °F 52% 30.20 in 10.0 mi North 5.8 mph - N/A   Clear
6:55 PM 64.4 °F 50.0 °F 59% 30.21 in 10.0 mi North 4.6 mph - N/A   Clear
7:15 PM 64.4 °F 50.0 °F 59% 30.21 in 10.0 mi NE 4.6 mph - N/A   Clear
7:35 PM 62.6 °F 50.0 °F 63% 30.21 in 10.0 mi NNE 5.8 mph - N/A   Clear
7:55 PM 62.6 °F 50.0 °F 63% 30.22 in 10.0 mi North 6.9 mph - N/A   Clear
8:15 PM 62.6 °F 50.0 °F 63% 30.22 in 10.0 mi NNE 8.1 mph - N/A   Clear
8:35 PM 60.8 °F 50.0 °F 68% 30.22 in 10.0 mi Calm Calm - N/A   Clear
8:55 PM 60.8 °F 50.0 °F 68% 30.22 in 10.0 mi North 5.8 mph - N/A   Clear
9:15 PM 60.8 °F 50.0 °F 68% 30.23 in 10.0 mi North 5.8 mph - N/A   Clear
9:35 PM 60.8 °F 50.0 °F 68% 30.24 in 10.0 mi Calm Calm - N/A   Clear
9:55 PM 59.0 °F 50.0 °F 72% 30.24 in 10.0 mi Calm Calm - N/A   Clear
10:35 PM 60.8 °F 50.0 °F 68% 30.24 in 10.0 mi North 3.5 mph - N/A   Clear
10:55 PM 59.0 °F 50.0 °F 72% 30.24 in 10.0 mi North 4.6 mph - N/A   Clear
11:15 PM 59.0 °F 50.0 °F 72% 30.24 in 10.0 mi North 5.8 mph - N/A   Clear
11:35 PM 59.0 °F 50.0 °F 72% 30.25 in 10.0 mi Calm Calm - N/A   Clear
11:55 PM 55.4 °F 50.0 °F 82% 30.25 in 10.0 mi Calm Calm - N/A   Clear